Regional Weather Roundup
Issued by NWS Binghamton, NY

Home | Current Version | Previous Version | Text Only | Print | Product List | Glossary On
Versions: 1 2 3 4 5 6 7 8 9 10 11 12 13 14 15 16 17 18 19 20 21 22 23 24 25 26 27
000
ASUS41 KBGM 251110
RWRBGM

REGIONAL WEATHER ROUNDUP
NATIONAL WEATHER SERVICE BINGHAMTON NY
600 AM EST SAT FEB 25 2017

Note: "fair" indicates few or no clouds below 12,000 feet with no
significant weather and/or obstructions to visibility.

* = Station(s) that does not report precipitation, such as rain,
snow, etc, also no thunder or fog.

NYZ009-015>018-022>025-036-037-044>046-055>057-062-251200
...Central New York...

CITY           SKY/WX    TMP DP  RH WIND       PRES   REMARKS
Binghamton     PTCLDY    58  53  84 S10G21    29.61F
Cortland       MOCLDY    59  54  82 S10G20    29.59S
Dansville      CLOUDY    57  49  74 CALM      29.55F
Elmira         CLOUDY    63  52  67 SW10G18   29.57F
Seneca Falls   CLOUDY    59  54  82 S6        29.55S
Ithaca         PTCLDY    59  53  80 S14G20    29.58F
Hamilton       MOCLDY    57  52  82 S9        29.60F
Monticello     CLOUDY    55  54  94 S7        29.74F
Norwich        CLOUDY    61  52  72 S10G16    29.63F
Oneonta        CLEAR     57  50  77 S6G17     29.65F
Penn Yan       CLOUDY    60  50  69 SW7       29.56S
Rome           PTCLDY    59  53  80 SE8       29.59F
Sidney         MOCLDY    57  55  94 S6        29.64S
Syracuse       MOCLDY    62  53  72 S16G25    29.53S
$$

PAZ038>040-043-044-047-048-072-251200
...Northeast Pennsylvania...

CITY           SKY/WX    TMP DP  RH WIND       PRES   REMARKS
Hazleton       CLOUDY    57  55  94 S10G18    29.72F
Scranton       CLOUDY    62  57  83 S10G16    29.67F
$$
&&
KEY
WCI = Wind Chill Index
VSB = Visibility
HX  = Heat Index
$$




USA.gov is the U.S. government's official web portal to all federal, state and local government web resources and services.